This demonstration page uses our WeatherBlox Daily Observations layout. Learn more.

Left ArrowRight Arrow

Hourly Observations for February 25, 2016

Temp ( °F °C ) Dew Point ( °F °C ) Humidity (%) Winds ( mph kmh ) Pressure ( in mb ) Visibility ( mi km ) Precip ( " mm )
12:15 am 00:15 Clear 28 -2 19 -7 69 69 NNW 12 19 30.33 1027 10 16 0.00 0.00
12:35 am 00:35 Clear 28 -2 19 -7 69 69 NW 12 19 30.33 1027 10 16 0.00 0.00
12:55 am 00:55 Clear 28 -2 19 -7 69 69 NW 12 19 30.33 1027 10 16 0.00 0.00
1:15 am 01:15 Clear 28 -2 19 -7 69 69 NW 12 19 30.33 1027 10 16 0.00 0.00
1:35 am 01:35 Clear 27 -3 19 -7 74 74 NW 9 15 30.33 1027 10 16 0.00 0.00
1:55 am 01:55 Clear 27 -3 19 -7 74 74 NW 10 17 30.33 1027 10 16 0.00 0.00
2:15 am 02:15 Clear 27 -3 19 -7 74 74 NW 12 19 30.33 1027 10 16 0.00 0.00
2:35 am 02:35 Clear 27 -3 18 -8 69 69 NW 10 17 30.33 1027 10 16 0.00 0.00
2:55 am 02:55 Partly Cloudy 27 -3 19 -7 74 74 NW 12 19 30.33 1027 10 16 0.00 0.00
3:15 am 03:15 Mostly Clear 27 -3 19 -7 74 74 NW 12 19 30.33 1027 10 16 0.00 0.00
3:35 am 03:35 Clear 27 -3 19 -7 74 74 WNW 14 22 30.33 1027 10 16 0.00 0.00
3:55 am 03:55 Clear 27 -3 19 -7 74 74 WNW 12 19 30.33 1027 10 16 0.00 0.00
4:15 am 04:15 Clear 27 -3 19 -7 74 74 WNW 13 20 30.36 1028 10 16 0.00 0.00
4:35 am 04:35 Clear 27 -3 19 -7 74 74 WNW 13 20 30.36 1028 10 16 0.00 0.00
4:55 am 04:55 Clear 27 -3 18 -8 69 69 W 10 17 30.36 1028 10 16 0.00 0.00
5:15 am 05:15 Clear 25 -4 19 -7 80 80 W 10 17 30.39 1029 10 16 0.00 0.00
5:35 am 05:35 Clear 25 -4 19 -7 80 80 WNW 8 13 30.39 1029 10 16 0.00 0.00
5:55 am 05:55 Clear 25 -4 19 -7 80 80 W 10 17 30.42 1030 10 16 0.00 0.00
6:15 am 06:15 Mostly Clear 25 -4 19 -7 80 80 WNW 13 20 30.42 1030 10 16 0.00 0.00
6:35 am 06:35 Mostly Cloudy 27 -3 19 -7 74 74 WNW 13 20 30.42 1030 10 16 0.00 0.00
6:55 am 06:55 Cloudy 27 -3 19 -7 74 74 WNW 12 19 30.42 1030 10 16 0.00 0.00
7:15 am 07:15 Cloudy 27 -3 19 -7 74 74 NW 12 19 30.42 1030 10 16 0.00 0.00
7:35 am 07:35 Partly Cloudy 27 -3 19 -7 74 74 NW 10 17 30.42 1030 10 16 0.00 0.00
7:55 am 07:55 Partly Cloudy 28 -2 19 -7 69 69 NNW 15 24 30.39 1029 10 16 0.00 0.00
8:15 am 08:15 Cloudy 30 -1 19 -7 64 64 N 18 30 30.39 1029 10 16 0.00 0.00
8:35 am 08:35 Cloudy 30 -1 19 -7 64 64 N 17 28 30.42 1030 10 16 0.00 0.00
8:55 am 08:55 Cloudy 30 -1 19 -7 64 64 N 18 30 30.42 1030 10 16 0.00 0.00
9:15 am 09:15 Cloudy 30 -1 18 -8 59 59 N 23 37 30.42 1030 10 16 0.00 0.00
9:35 am 09:35 Cloudy 30 -1 18 -8 59 59 NNW 20 31 30.45 1031 10 16 0.00 0.00
9:55 am 09:55 Cloudy 32 0 18 -8 55 55 NNW 20 31 30.45 1031 10 16 0.00 0.00
10:15 am 10:15 Cloudy 32 0 18 -8 55 55 N 22 35 30.45 1031 10 16 0.00 0.00
10:35 am 10:35 Cloudy 32 0 18 -8 55 55 N 23 37 30.45 1031 10 16 0.00 0.00
10:55 am 10:55 Cloudy 32 0 18 -8 55 55 NNW 18 30 30.48 1032 10 16 0.00 0.00
11:15 am 11:15 Cloudy 32 0 18 -8 55 55 NNW 18 30 30.48 1032 10 16 0.00 0.00
11:35 am 11:35 Cloudy 32 0 18 -8 55 55 N 20 31 30.48 1032 10 16 0.00 0.00
11:55 am 11:55 Cloudy 34 1 18 -8 51 51 N 21 33 30.48 1032 10 16 0.00 0.00
12:15 pm 12:15 Cloudy 34 1 18 -8 51 51 N 17 28 30.50 1033 10 16 0.00 0.00
12:35 pm 12:35 Cloudy 34 1 18 -8 51 51 N 16 26 30.50 1033 10 16 0.00 0.00
12:55 pm 12:55 Cloudy 34 1 18 -8 51 51 NW 14 22 30.48 1032 10 16 0.00 0.00
1:15 pm 13:15 Cloudy 36 2 18 -8 48 48 NNW 14 22 30.45 1031 10 16 0.00 0.00
1:35 pm 13:35 Cloudy 36 2 19 -7 52 52 NW 13 20 30.45 1031 10 16 0.00 0.00
1:55 pm 13:55 Mostly Cloudy 37 3 19 -7 48 48 NW 13 20 30.45 1031 10 16 0.00 0.00
2:15 pm 14:15 Partly Cloudy 37 3 19 -7 48 48 NW 9 15 30.45 1031 10 16 0.00 0.00
2:35 pm 14:35 Mostly Cloudy 37 3 19 -7 48 48 NW 13 20 30.45 1031 10 16 0.00 0.00
2:55 pm 14:55 Mostly Cloudy 37 3 18 -8 45 45 NNW 13 20 30.42 1030 10 16 0.00 0.00
3:15 pm 15:15 Mostly Sunny 39 4 18 -8 42 42 NNW 14 22 30.42 1030 10 16 0.00 0.00
3:35 pm 15:35 Sunny 39 4 18 -8 42 42 NW 9 15 30.42 1030 10 16 0.00 0.00
3:55 pm 15:55 Sunny 39 4 18 -8 42 42 WNW 8 13 30.42 1030 10 16 0.00 0.00
4:15 pm 16:15 Sunny 39 4 18 -8 42 42 N 9 15 30.42 1030 10 16 0.00 0.00
4:35 pm 16:35 Sunny 39 4 19 -7 45 45 NNW 5 7 30.42 1030 10 16 0.00 0.00
4:55 pm 16:55 Sunny 39 4 18 -8 42 42 NNW 3 6 30.39 1029 10 16 0.00 0.00
5:15 pm 17:15 Sunny 39 4 18 -8 42 42 NNW 7 11 30.39 1029 10 16 0.00 0.00
5:35 pm 17:35 Sunny 39 4 19 -7 45 45 NNW 6 9 30.39 1029 10 16 0.00 0.00
5:55 pm 17:55 Sunny 39 4 18 -8 42 42 Calm 30.39 1029 10 16 0.00 0.00
6:15 pm 18:15 Sunny 37 3 18 -8 45 45 Calm 30.39 1029 10 16 0.00 0.00
6:35 pm 18:35 Clear 34 1 18 -8 51 51 Calm 30.39 1029 10 16 0.00 0.00
6:55 pm 18:55 Clear 36 2 18 -8 48 48 Calm 30.39 1029 10 16 0.00 0.00
7:15 pm 19:15 Clear 30 -1 18 -8 59 59 Calm 30.42 1030 10 16 0.00 0.00
7:35 pm 19:35 Clear 30 -1 19 -7 64 64 SE 7 11 30.42 1030 10 16 0.00 0.00
7:55 pm 19:55 Clear 27 -3 19 -7 74 74 SE 5 7 30.45 1031 10 16 0.00 0.00
8:15 pm 20:15 Clear 28 -2 18 -8 64 64 SSE 3 6 30.42 1030 10 16 0.00 0.00
8:35 pm 20:35 Clear 28 -2 19 -7 69 69 SSE 6 9 30.42 1030 10 16 0.00 0.00
8:55 pm 20:55 Clear 28 -2 19 -7 69 69 SSE 5 7 30.42 1030 10 16 0.00 0.00
9:15 pm 21:15 Clear 27 -3 18 -8 69 69 S 8 13 30.42 1030 10 16 0.00 0.00
9:35 pm 21:35 Clear 27 -3 18 -8 69 69 undefined N/A 30.42 1030 10 16 0.00 0.00
9:55 pm 21:55 Clear 25 -4 18 -8 74 74 undefined N/A 30.42 1030 10 16 0.00 0.00
10:15 pm 22:15 Clear 25 -4 19 -7 80 80 S 8 13 30.42 1030 10 16 0.00 0.00
10:35 pm 22:35 Clear 27 -3 19 -7 74 74 SSW 9 15 30.42 1030 10 16 0.00 0.00
10:55 pm 22:55 Clear 25 -4 18 -8 74 74 S 8 13 30.42 1030 10 16 0.00 0.00
11:15 pm 23:15 Clear 25 -4 18 -8 74 74 SSW 6 9 30.42 1030 10 16 0.00 0.00
11:35 pm 23:35 Clear 25 -4 18 -8 74 74 SSW 8 13 30.42 1030 10 16 0.00 0.00
11:55 pm 23:55 Clear 25 -4 18 -8 74 74 SSW 9 15 30.42 1030 10 16 0.00 0.00

Powered by AerisWeather